Showing default

COSMOS 2586, 63289

Orbit data source: Space-Track

COSMOS 2586, 63289 is a payload satellite owned by VVKO VKS (CIS) in LEO that was launched on Sun, 16 Mar 2025 UTC via an ANGARA-1.2 launch vehicle from the Plesetsk Missile And Space Complex (PKMTR). Payload-class satellites include a variety of spacecraft equipped with specific instruments for various scientific and technological missions. These include communications satellites like Starlink; space stations such as the ISS; scientific satellites like the Hubble; Earth observation satellites from companies like Planet Labs, Umbra, and HawkEye 360; GPS; miniature CubeSats for education and research; and military/defense satellites.

Loading next visibility...
Identifier
63289, 2025-054B
Orbit
LEO
Last TLE update
13 hours ago
Origin
Manufacturer
Resehetnev ISS
Mission
Operational Defense Communications
Bus & Motor
STRELA-3M, Unknown motor
Mass
280 kg wet, 280 kg dry
Launch date (UTC)
2025-03-16 (4 months ago)
Launch vehicle
ANGARA-1.2
Launch site
Plesetsk Missile And Space Complex (PKMTR)
Object type
Payload
Rocket body
Debris
Shape & HBR
Cyl + 1 Ant, 7 m
Radar Cross Section
1.583 m², Large (>1 m²)

Expand to show TLE details & history

TLE from 13 hours ago
0 COSMOS 2586
1 63289U 25054B   25191.56725758  .00000009  00000-0 -89971-5 0  9996
2 63289  82.4929 291.1914 0021208  52.2068 308.0928 12.42898021 14414
Epoch: 2025-07-10T13:36Z
TLE epoch observation values (Epoch: 2025-07-10T13:36:51.054Z)
Latitude
-0.00005°
Longitude
158.24698°
Altitude
1,486.761 km
Speed
7.125 km/s
True Right ascension
19h 24m 45s
True Declination
0° 00' 00"
Sunlit
Object was in full shadow at epoch
Visualization orbit readout
Latitude
-29.94992°
Longitude
153.56724°
Altitude
1,502.725 km
Speed
7.113 km/s
Apparent Right ascension
22h 03m 59s
Apparent Declination
-53° 30' 07"
Sunlit
Object is in full shadow
Visualization observer readout
Local Sidereal Time
15:15:13
Azimuth
132.672° SE
Elevation
-37.746°
Doppler factor
1
Orbital elements
Apogee altitude
1,508.384 km
Perigee altitude
1,475.003 km
Semi-major axis
7,869.831 km
Eccentricity
0.00212
Inclination
82.4929°
RAAN
291.1914°
Arg. of periapsis
52.2068°
True anomaly
Unknown
Mean anomaly
308.0928°
Eccentric anomaly
Unknown
Mean motion
3.10882 °/min
Orbital period
115.8 mins
BSTAR
-0.0000089971
Loading maneuver chart data...
Loading SW <> Apogee altitude chart data...
Loading historical data...
Loading historical data...
Loading historical data...
Loading historical data...
Loading historical data...
Loading historical data...
Loading historical data...
Other satellites on launch #54 in the year 2025 (2025-03-16 UTC)

COSMOS 2586 Visibility forecast

Observer location: undefined°, undefined°

Span
Click to sort rows by Start time (UTC) header in descending order
Start Az.
Max El. time (UTC)
Max El. Az.
Max El.
End time (UTC)
End Az.
4 mins2025-07-11 05:15:34.482Z89.482° E2025-07-11 05:17:34.482Z75.452° E11.629°2025-07-11 05:19:34.482Z61.288° ENE
15 mins2025-07-11 07:05:34.482Z174.305° S2025-07-11 07:12:34.482Z109.541° ESE43.495°2025-07-11 07:20:34.482Z12.516° NNE
11 mins2025-07-11 09:05:34.482Z252.116° W2025-07-11 09:10:34.482Z294.187° NW21.994°2025-07-11 09:16:34.482Z341.515° N
13 mins2025-07-11 17:17:34.482Z16.396° NNE2025-07-11 17:23:34.482Z72.85° E29.414°2025-07-11 17:30:34.482Z131.586° SE
15 mins2025-07-11 19:13:34.482Z339.328° N2025-07-11 19:20:34.482Z269.076° W37.937°2025-07-11 19:28:34.482Z198.936° SSW
|